When you browse on this site, cookies collect data to enhance your experience and personalize the content and advertising you see.
Visit our Privacy Policy to learn more. By continuing to use the site, you agree to this use of cookies and data.
  • Em Portugal
  • Lista de países
  • Para 7 dias
  • Temperatura da água
  • Mapas de satélite
  • Mapa do tempo
  • Widgets de tempo
  • user-avatar
    Iniciar Sessão

    Previsão horária em Sarajevo

    Hoje, 17 Dezembro, Segunda-feira

    Tempo Temperatura Precipitação Vento Pressão Humidade
    00:00 -2°C° 0 mm 1 m/s 687 mmHg 65%
    01:00 -1°C° 0 mm 1 m/s 687 mmHg 66%
    02:00 -1°C° 0 mm 1 m/s 687 mmHg 66%
    03:00 -1°C° 0 mm 1 m/s 687 mmHg 66%
    04:00 0°C° 0 mm 1 m/s 687 mmHg 67%
    05:00 -1°C° 0.1 mm 1 m/s 686 mmHg 70%
    06:00 -1°C° 0.1 mm 1 m/s 686 mmHg 72%
    07:00 -1°C° 0.1 mm 1 m/s 686 mmHg 75%
    08:00 0°C° 0.2 mm 1 m/s 686 mmHg 77%
    09:00 0°C° 0.2 mm 1 m/s 686 mmHg 80%
    10:00 -2°C° 0.2 mm 2 m/s 686 mmHg 83%
    11:00 -2°C° 0.3 mm 2 m/s 686 mmHg 84%
    12:00 -1°C° 0.3 mm 2 m/s 686 mmHg 85%
    13:00 -1°C° 0.3 mm 2 m/s 686 mmHg 86%
    14:00 -2°C° 0.2 mm 2 m/s 687 mmHg 87%
    15:00 -2°C° 0.2 mm 2 m/s 687 mmHg 88%
    16:00 -2°C° 0.2 mm 3 m/s 687 mmHg 88%
    17:00 -4°C° 0 mm 3 m/s 687 mmHg 88%
    18:00 -5°C° 0 mm 3 m/s 687 mmHg 88%
    19:00 -6°C° 0 mm 3 m/s 687 mmHg 88%
    20:00 -6°C° 0 mm 3 m/s 688 mmHg 88%
    21:00 -6°C° 0 mm 3 m/s 688 mmHg 87%
    22:00 -6°C° 0 mm 3 m/s 688 mmHg 87%
    23:00 -6°C° 0 mm 3 m/s 689 mmHg 87%

    Amanhã, 18 Dezembro, Terça-feira

    Tempo Temperatura Precipitação Vento Pressão Humidade
    00:00 -6°C° 0 mm 3 m/s 689 mmHg 86%
    01:00 -6°C° 0 mm 3 m/s 689 mmHg 86%
    02:00 -6°C° 0 mm 3 m/s 690 mmHg 86%
    03:00 -6°C° 0 mm 3 m/s 690 mmHg 86%
    04:00 -7°C° 0 mm 3 m/s 690 mmHg 86%
    05:00 -7°C° 0 mm 3 m/s 690 mmHg 86%
    06:00 -7°C° 0 mm 3 m/s 690 mmHg 87%
    07:00 -7°C° 0 mm 3 m/s 691 mmHg 87%
    08:00 -6°C° 0 mm 3 m/s 691 mmHg 86%
    09:00 -5°C° 0 mm 3 m/s 692 mmHg 84%
    10:00 -4°C° 0 mm 3 m/s 692 mmHg 83%
    11:00 -2°C° 0 mm 3 m/s 692 mmHg 82%
    12:00 -2°C° 0 mm 3 m/s 692 mmHg 81%
    13:00 -1°C° 0 mm 3 m/s 692 mmHg 80%
    14:00 -2°C° 0 mm 3 m/s 692 mmHg 82%
    15:00 -4°C° 0 mm 3 m/s 692 mmHg 85%
    16:00 -4°C° 0 mm 2 m/s 692 mmHg 88%
    17:00 -5°C° 0 mm 2 m/s 692 mmHg 88%
    18:00 -6°C° 0 mm 2 m/s 692 mmHg 89%
    19:00 -7°C° 0 mm 2 m/s 691 mmHg 89%
    20:00 -7°C° 0 mm 2 m/s 692 mmHg 88%
    21:00 -7°C° 0 mm 2 m/s 692 mmHg 87%
    22:00 -7°C° 0 mm 2 m/s 692 mmHg 85%
    23:00 -7°C° 0 mm 2 m/s 691 mmHg 84%

    Depois de amanhã, 19 Dezembro, Quarta-feira

    Tempo Temperatura Precipitação Vento Pressão Humidade
    00:00 -7°C° 0 mm 2 m/s 691 mmHg 83%
    01:00 -6°C° 0 mm 1 m/s 691 mmHg 81%
    02:00 -6°C° 0 mm 1 m/s 691 mmHg 80%
    03:00 -6°C° 0 mm 1 m/s 691 mmHg 79%
    04:00 -6°C° 0 mm 1 m/s 690 mmHg 77%
    05:00 -6°C° 0 mm 1 m/s 690 mmHg 75%
    06:00 -6°C° 0 mm 1 m/s 690 mmHg 74%
    07:00 -6°C° 0 mm 1 m/s 691 mmHg 72%
    08:00 -3°C° 0 mm 1 m/s 691 mmHg 70%
    09:00 -1°C° 0 mm 1 m/s 692 mmHg 69%
    10:00 +1°C° 0 mm 1 m/s 692 mmHg 67%
    11:00 +2°C° 0 mm 1 m/s 692 mmHg 68%
    12:00 +3°C° 0 mm 1 m/s 692 mmHg 69%
    13:00 +3°C° 0 mm 0 m/s 692 mmHg 70%
    14:00 +2°C° 0 mm 0 m/s 691 mmHg 70%
    15:00 0°C° 0 mm 0 m/s 691 mmHg 70%
    16:00 0°C° 0 mm 1 m/s 691 mmHg 70%
    17:00 -1°C° 0 mm 1 m/s 691 mmHg 69%
    18:00 -1°C° 0 mm 1 m/s 691 mmHg 67%
    19:00 -1°C° 0 mm 1 m/s 691 mmHg 66%
    20:00 -1°C° 0 mm 1 m/s 691 mmHg 65%
    21:00 -1°C° 0 mm 1 m/s 691 mmHg 64%
    22:00 -1°C° 0 mm 1 m/s 691 mmHg 63%
    23:00 -1°C° 0 mm 1 m/s 691 mmHg 63%

    20 Dezembro, Quinta-feira

    Tempo Temperatura Precipitação Vento Pressão Humidade
    00:00 -1°C° 0 mm 1 m/s 691 mmHg 64%
    01:00 -1°C° 0 mm 1 m/s 691 mmHg 64%
    02:00 -1°C° 0 mm 1 m/s 690 mmHg 64%
    03:00 -1°C° 0 mm 1 m/s 690 mmHg 64%
    04:00 -1°C° 0 mm 1 m/s 690 mmHg 65%
    05:00 -1°C° 0 mm 1 m/s 690 mmHg 66%
    06:00 -3°C° 0 mm 2 m/s 690 mmHg 67%
    07:00 -2°C° 0 mm 2 m/s 690 mmHg 68%
    08:00 -1°C° 0 mm 2 m/s 690 mmHg 69%
    09:00 +1°C° 0 mm 2 m/s 691 mmHg 70%
    10:00 +2°C° 0 mm 2 m/s 691 mmHg 72%
    11:00 +3°C° 0 mm 2 m/s 691 mmHg 73%
    12:00 +3°C° 0 mm 2 m/s 690 mmHg 74%
    13:00 +4°C° 0 mm 2 m/s 690 mmHg 75%
    14:00 +3°C° 0.2 mm 2 m/s 690 mmHg 77%
    15:00 +2°C° 0.2 mm 2 m/s 690 mmHg 79%
    16:00 +2°C° 0.2 mm 2 m/s 689 mmHg 81%
    17:00 +2°C° 1 mm 2 m/s 689 mmHg 84%
    18:00 +2°C° 1 mm 2 m/s 690 mmHg 87%
    19:00 +2°C° 1 mm 2 m/s 690 mmHg 90%
    20:00 +2°C° 0.6 mm 2 m/s 690 mmHg 92%
    21:00 +3°C° 0.6 mm 1 m/s 690 mmHg 93%
    22:00 +3°C° 0.6 mm 1 m/s 690 mmHg 94%
    23:00 +3°C° 0.4 mm 1 m/s 690 mmHg 94%

    21 Dezembro, Sexta-feira

    Tempo Temperatura Precipitação Vento Pressão Humidade
    00:00 +3°C° 0.4 mm 1 m/s 690 mmHg 94%
    01:00 +3°C° 0.4 mm 1 m/s 691 mmHg 95%
    02:00 +3°C° 0.1 mm 1 m/s 691 mmHg 95%
    03:00 +3°C° 0.1 mm 1 m/s 691 mmHg 95%
    04:00 +3°C° 0.1 mm 1 m/s 691 mmHg 95%
    05:00 +2°C° 0 mm 1 m/s 691 mmHg 95%
    06:00 +2°C° 0 mm 1 m/s 692 mmHg 95%
    07:00 +2°C° 0 mm 1 m/s 692 mmHg 94%
    08:00 +2°C° 0 mm 1 m/s 692 mmHg 94%
    09:00 +3°C° 0 mm 1 m/s 693 mmHg 94%
    10:00 +4°C° 0 mm 1 m/s 693 mmHg 93%
    11:00 +4°C° 0 mm 1 m/s 693 mmHg 93%
    12:00 +3°C° 0 mm 0 m/s 693 mmHg 92%
    13:00 +4°C° 0 mm 0 m/s 693 mmHg 91%
    14:00 +3°C° 0 mm 0 m/s 693 mmHg 92%
    15:00 +2°C° 0 mm 0 m/s 693 mmHg 93%
    16:00 +3°C° 0 mm 1 m/s 693 mmHg 93%
    17:00 +2°C° 0 mm 1 m/s 693 mmHg 93%
    18:00 +2°C° 0 mm 1 m/s 693 mmHg 93%
    19:00 +1°C° 0 mm 1 m/s 693 mmHg 93%
    20:00 +1°C° 0 mm 1 m/s 693 mmHg 93%
    21:00 +1°C° 0 mm 1 m/s 693 mmHg 92%
    22:00 +1°C° 0 mm 1 m/s 693 mmHg 92%
    23:00 +1°C° 0 mm 1 m/s 693 mmHg 92%

    22 Dezembro, Sábado

    Tempo Temperatura Precipitação Vento Pressão Humidade
    00:00 +1°C° 0 mm 1 m/s 693 mmHg 92%
    01:00 +1°C° 0 mm 1 m/s 693 mmHg 92%
    02:00 +1°C° 0 mm 1 m/s 693 mmHg 92%
    03:00 0°C° 0 mm 1 m/s 692 mmHg 92%
    04:00 0°C° 0 mm 1 m/s 692 mmHg 92%
    05:00 0°C° 0 mm 1 m/s 693 mmHg 92%
    06:00 0°C° 0 mm 1 m/s 693 mmHg 92%
    07:00 0°C° 0 mm 1 m/s 693 mmHg 92%
    08:00 +2°C° 0 mm 1 m/s 693 mmHg 91%
    09:00 +3°C° 0 mm 1 m/s 694 mmHg 91%
    10:00 +4°C° 0 mm 1 m/s 694 mmHg 91%
    11:00 +4°C° 0 mm 1 m/s 694 mmHg 91%
    12:00 +5°C° 0 mm 1 m/s 693 mmHg 92%
    13:00 +5°C° 0 mm 1 m/s 693 mmHg 92%
    14:00 +5°C° 0 mm 1 m/s 693 mmHg 93%
    15:00 +4°C° 0 mm 1 m/s 693 mmHg 94%
    16:00 +4°C° 0 mm 1 m/s 693 mmHg 96%
    17:00 +4°C° 0 mm 1 m/s 693 mmHg 95%
    18:00 +3°C° 0 mm 1 m/s 693 mmHg 95%
    19:00 +3°C° 0 mm 1 m/s 693 mmHg 95%
    20:00 +3°C° 0 mm 1 m/s 693 mmHg 95%
    21:00 +3°C° 0 mm 1 m/s 694 mmHg 94%
    22:00 +3°C° 0 mm 1 m/s 694 mmHg 94%
    23:00 +3°C° 0 mm 1 m/s 693 mmHg 94%
    Mostrar mais